NOAA 16 DEB, 42418

Orbit data source: Space-Track

NOAA 16 DEB, 42418 is space debris in SSO originally from a launch on Thu, 21 Sep 2000 UTC launched from the Air Force Western Test Range (AFWTR). Debris objects in space refer to the collection of defunct objects orbiting the Earth. Examples of debris include non-operational satellites, rocket bodies, and fragments generated from explosions, collisions, or faulty payload assembly.

Loading next visibility...
Identifier
42418, 2000-055TN
Orbit
SSO
Country
Flag of USUS
Related business
Manufacturer
Unknown
Mission
Spacecraft
Bus & Motor
Unknown
Mass
Unknown
Launch date (UTC)
2000-09-21 (26 years ago)
Launch vehicle
Unknown
Launch site
Air Force Western Test Range (AFWTR)
Object type
Payload
Rocket body
Debris
Shape & HBR
Unknown shape, 0.1 m
Radar Cross Section
Small (<0.1 m²)

Expand to show TLE details & history
Last TLE update: 13 hours ago

TLE from 13 hours ago
0 NOAA 16 DEB
1 42418U 00055TN  26126.47455034  .00003770  00000-0  14195-2 0  9997
2 42418  98.6665 205.3700 0008045 270.2067  89.8194 14.32036250525714
Epoch: 2026-05-06T11:23Z
TLE epoch observation values (Epoch: 2026-05-06T11:23:21.149Z)
Latitude
-0.00005°
Longitude
170.19737°
Altitude
787.851 km
Speed
7.46 km/s
True Right ascension
13h 41m 28s
True Declination
0° 00' 00"
Sunlit
Object was in full shadow at epoch
Visualization orbit readout
Latitude
Unknown
Longitude
Unknown
Altitude
Unknown
Speed
Unknown
Apparent Right ascension
Unknown
Apparent Declination
Unknown
Sunlit
N/A
Visualization observer readout
Local Sidereal Time
08:31:39
Azimuth
Unknown
Elevation
Unknown
Doppler factor
Unknown
Orbital elements
Apogee altitude
787.833 km
Perigee altitude
776.313 km
Semi-major axis
7,160.21 km
Eccentricity
0.0008
Inclination
98.6665°
RAAN
205.37°
Arg. of periapsis
270.2067°
True anomaly
89.91159°
Mean anomaly
89.8194°
Eccentric anomaly
89.86549°
Mean motion
3.58224 °/min
Orbital period
100.5 mins
BSTAR
0.0014195
Loading maneuver chart data...
Computing Atmospheric mass density...
Loading historical data...
Loading historical data...
Loading historical data...
Loading historical data...
Loading historical data...
Loading historical data...
Loading historical data...

Documentation

Showing up to 5 results
|